Location: Penzberg
(47.7615°N, 11.3159°E)
Time: 21:29:26
(UTC+01:00)

N. Korean satellite - Visible Passes

Search period start: 23 February 2018 00:00
Search period end: 05 March 2018 00:00
Orbit: 459 x 514 km, 97.2° (Epoch: 23 February)

Date Brightness Start Highest point End Pass type
(mag) Time Alt. Az. Time Alt. Az. Time Alt. Az.
23 Feb 10.4 19:20:41 10° WSW 19:21:42 11° W 19:22:44 10° WNW visible
24 Feb 9.6 18:55:05 10° SW 18:57:44 20° W 19:00:25 10° NW visible
25 Feb 9.4 06:17:59 10° NE 06:21:08 25° E 06:24:16 10° SSE visible
25 Feb 8.3 18:30:35 10° SSW 18:33:50 37° W 18:37:09 10° NNW visible
26 Feb 10.3 05:55:05 10° NE 05:57:11 14° E 05:59:18 10° SE visible
27 Feb 10.3 19:18:53 10° WSW 19:20:09 12° W 19:21:25 10° WNW visible
28 Feb 9.6 18:53:27 10° SW 18:56:10 21° W 18:58:56 10° NW visible
01 Mar 9.5 06:16:28 10° NE 06:19:35 25° E 06:22:43 10° SSE visible
01 Mar 8.2 18:28:58 10° SSW 18:32:16 39° W 18:35:39 10° NNW visible
02 Mar 10.3 05:53:35 10° ENE 05:55:38 14° E 05:57:43 10° SE visible
03 Mar 10.3 19:17:05 10° WSW 19:18:33 12° W 19:20:03 10° WNW visible
04 Mar 9.5 18:51:45 10° SSW 18:54:34 22° W 18:57:26 10° NW visible
